Flag for Maldives Weather past 2 weeks in Male, Maldives

Now
79 °F

Light rain. Mostly cloudy.


Feels Like: 82 °F
Forecast: 82 / 87 °F
Wind: 5 mph from West

Location: Male Airport

Current Time: Aug 28, 2015 at 7:39:34 AM

Latest Report: Aug 28, 2015 at 4:00 AM


Visibility: 4 mi

Pressure: 29.83 "Hg

Humidity: 89%

Dew point: 75 °F

Location of MaleLocation

Historic Weather in Male — Graph

°F

Male temperature yesterday

Maximum temperature yesterday: 84 °F (at 9:00 AM)
Minimum temperature yesterday: 81 °F (at 12:00 AM)
Average temperature yesterday: 83 °F

Past Weeks' High & Low Weather Summary

 TemperatureHumidityPressure
High90 °F (Aug 14, 1:00 PM)100% (Aug 17, 11:00 PM)29.98 "Hg (Aug 17, 11:00 PM)
Low77 °F (Aug 17, 11:00 PM)70% (Aug 16, 2:00 PM)29.80 "Hg (Aug 13, 4:00 AM)
Average84 °F80%29.87 "Hg
* Reported Aug 13 4:00 AM — Aug 28 4:00 AM, Male, Weather by CustomWeather, © 2015

Note: Actual official high and low records may vary slightly from our data, if they occured in-between our weather recording intervals... More about our weather records

Advertising

Male weather history for previous 24 hours

 ConditionsComfort  
Time TempWeatherWind HumidityBarometerVisibility
4:00 AM
Fri, Aug 28
79 °FLight rain. Mostly cloudy.5 mph89%29.83 "Hg4 mi
3:00 AM77 °FLight rain. Overcast.6 mph94%29.83 "Hg4 mi
1:00 AM82 °FPassing clouds.6 mph89%29.86 "HgN/A
12:00 AM82 °FPassing clouds.6 mph89%29.89 "HgN/A
11:00 PM
Thu, Aug 27
84 °FPassing clouds.6 mph84%29.92 "HgN/A
10:00 PM82 °FPassing clouds.8 mph89%29.92 "HgN/A
9:00 PM82 °FPassing clouds.9 mph84%29.89 "HgN/A
8:00 PM84 °FPartly cloudy.9 mph79%29.89 "HgN/A
7:00 PM82 °FOvercast.6 mph84%29.86 "HgN/A
6:00 PM82 °FMostly cloudy.9 mph84%29.83 "HgN/A
5:00 PM84 °FOvercast.9 mph79%29.83 "HgN/A
4:00 PM82 °FLight rain. More clouds than sun.9 mph84%29.83 "HgN/A
3:00 PM82 °FLight rain. More clouds than sun.13 mph84%29.80 "HgN/A
2:00 PM84 °FBroken clouds.7 mph70%29.80 "HgN/A
1:00 PM84 °FBroken clouds.9 mph70%29.83 "HgN/A
12:00 PM82 °FBroken clouds.14 mph74%29.86 "HgN/A
11:00 AM81 °FSprinkles. Broken clouds.26 mph79%29.89 "HgN/A
9:00 AM84 °FPartly sunny.14 mph74%29.89 "HgN/A
8:00 AM82 °FPartly sunny.13 mph84%29.86 "HgN/A
7:00 AM82 °FPartly sunny.10 mph89%29.86 "HgN/A
Weather by CustomWeather, © 2015

See weather overviewHow to use our weather pages